SL-12 DEB, 39800

Orbit data source: Space-Track

SL-12 DEB, 39800 is space debris in HEO originally from a launch on Thu, 25 Sep 2008 UTC launched from the Tyuratam Missile And Space Complex (TTMTR). Debris objects in space refer to the collection of defunct objects orbiting the Earth. Examples of debris include non-operational satellites, rocket bodies, and fragments generated from explosions, collisions, or faulty payload assembly.

Loading next visibility...
Identifier
39800, 2008-046M
Orbit
HEO
Country
Flag of CISCIS
Related business
Manufacturer
Unknown
Mission
Spacecraft
Bus & Motor
Unknown
Mass
Unknown
Launch date (UTC)
2008-09-25 (18 years ago)
Launch vehicle
Unknown
Launch site
Tyuratam Missile And Space Complex (TTMTR)
Object type
Payload
Rocket body
Debris
Shape & HBR
Unknown shape, 0.6 m
Radar Cross Section
Medium (>0.1 m² and <1 m²)

Expand to show TLE details & history
Last TLE update: 3 days ago

TLE from 3 days ago
0 SL-12 DEB
1 39800U 08046M   26170.80280936 -.00000044  00000-0  17721-3 0  9990
2 39800  65.2784   0.2352 5673317 250.5890  42.1111  4.24155467186640
Epoch: 2026-06-19T19:16Z
TLE epoch observation values (Epoch: 2026-06-19T19:16:02.728Z)
Latitude
0.00001°
Longitude
163.19153°
Altitude
7,099.752 km
Speed
5.868 km/s
True Right ascension
00h 00m 55s
True Declination
0° 00' 00"
Sunlit
Object was in daylight at epoch
Visualization orbit readout
Latitude
Unknown
Longitude
Unknown
Altitude
Unknown
Speed
Unknown
Apparent Right ascension
Unknown
Apparent Declination
Unknown
Sunlit
N/A
Visualization observer readout
Local Sidereal Time
02:17:17
Azimuth
Unknown
Elevation
Unknown
Doppler factor
Unknown
Orbital elements
Apogee altitude
18,886.612 km
Perigee altitude
596.3 km
Semi-major axis
16,119.593 km
Eccentricity
0.56733
Inclination
65.2784°
RAAN
0.2352°
Arg. of periapsis
250.589°
True anomaly
109.47869°
Mean anomaly
42.1111°
Eccentric anomaly
73.23522°
Mean motion
1.0605 °/min
Orbital period
339.46 mins
BSTAR
0.00017721
Loading maneuver chart data...
Computing Atmospheric mass density...
Loading historical data...
Loading historical data...
Loading historical data...
Loading historical data...
Loading historical data...
Loading historical data...
Loading historical data...

Documentation

Showing up to 5 results
|